This demonstration page uses our WeatherBlox Daily Observations layout. Learn more.

Left ArrowRight Arrow

31.84235, -102.49876

Hourly Observations for March 26, 2022

Temp ( °F °C ) Dew Point ( °F °C ) Humidity (%) Winds ( mph kmh ) Pressure ( in mb ) Visibility ( mi km ) Precip ( " mm )
12:53 am 00:53 Clear 63 17.2 10 -12.2 12 12 SSW 3 6 29.98 1015 10 16 0.00 0.00
1:53 am 01:53 Clear 60 15.6 8 -13.3 12 12 S 6 9 29.97 1015 10 16 0.00 0.00
2:53 am 02:53 Clear 63 17.2 5 -15 10 10 SSW 6 9 29.96 1014 10 16 0.00 0.00
3:53 am 03:53 Clear 59 15 6 -14.4 12 12 SSW 6 9 29.94 1014 10 16 0.00 0.00
4:53 am 04:53 Clear 59 15 7 -13.9 12 12 WSW 3 6 29.93 1014 10 16 0.00 0.00
5:53 am 05:53 Clear 56 13.3 6 -14.4 13 13 SW 3 6 29.95 1014 10 16 0.00 0.00
6:53 am 06:53 Clear 48 8.9 11 -11.7 22 22 NNE 10 17 29.97 1015 10 16 0.00 0.00
7:53 am 07:53 Sunny 45 7.2 16 -8.9 31 31 E 7 11 29.98 1015 10 16 0.00 0.00
8:53 am 08:53 Sunny 53 11.7 16 -8.9 23 23 Calm 30.00 1016 10 16 0.00 0.00
9:53 am 09:53 Sunny 62 16.7 13 -10.6 14 14 WSW 6 9 29.99 1016 10 16 0.00 0.00
10:53 am 10:53 Sunny 71 21.7 11 -11.7 10 10 Calm 29.99 1016 10 16 0.00 0.00
11:53 am 11:53 Sunny 74 23.3 12 -11.1 9 9 VRB 3 6 29.98 1015 10 16 0.00 0.00
12:53 pm 12:53 Sunny 79 26.1 13 -10.6 8 8 SSW 7 11 29.96 1015 10 16 0.00 0.00
1:53 pm 13:53 Sunny 83 28.3 13 -10.6 7 7 WSW 6 9 29.93 1014 10 16 0.00 0.00
2:53 pm 14:53 Sunny 87 30.6 10 -12.2 5 5 S 10 17 29.89 1012 10 16 0.00 0.00
3:53 pm 15:53 Sunny 86 30 11 -11.7 6 6 undefined N/A 29.86 1011 10 16 0.00 0.00
4:53 pm 16:53 Sunny 87 30.6 11 -11.7 6 6 WSW 8 13 29.84 1011 10 16 0.00 0.00
5:53 pm 17:53 Sunny 88 31.1 11 -11.7 5 5 WSW 12 19 29.82 1010 10 16 0.00 0.00
6:53 pm 18:53 Sunny 87 30.6 11 -11.7 6 6 WSW 6 9 29.83 1010 10 16 0.00 0.00
7:53 pm 19:53 Sunny 82 27.8 10 -12.2 6 6 SSW 7 11 29.85 1011 10 16 0.00 0.00
8:53 pm 20:53 Clear 77 25 8 -13.3 7 7 SSW 5 7 29.85 1011 10 16 0.00 0.00
9:53 pm 21:53 Clear 75 23.9 10 -12.2 8 8 S 3 6 29.86 1011 10 16 0.00 0.00
10:53 pm 22:53 Clear 68 20 9 -12.8 10 10 S 8 13 29.87 1011 10 16 0.00 0.00
11:53 pm 23:53 Clear 68 20 7 -13.9 9 9 S 9 15 29.86 1011 10 16 0.00 0.00

Powered by AerisWeather